Port Lavaca, TX

2:55 PM CDT on September 29, 2016 (GMT -0500)
Port Lavaca

Weather History for KPKV - December, 2013

Change the Weather History Date:

Monday, December 30, 2013

  Actual Average (KVCT) Record (KVCT)
Temperature  
Mean Temperature 42 °F 54 °F  
Max Temperature 46 °F 64 °F 82 °F (1973)
Min Temperature 38 °F 43 °F 15 °F (1983)
Degree Days  
Heating Degree Days 23 12  
Month to date heating degree days 320  
Since 1 July heating degree days 483  
Cooling Degree Days 0 1  
Month to date cooling degree days 30  
Year to date cooling degree days 3153  
Moisture  
Dew Point 33 °F    
Average Humidity 73    
Maximum Humidity 83    
Minimum Humidity 64    
Precipitation  
Precipitation 0.00 in 0.08 in 1.05 in (1958)
Month to date precipitation 2.23  
Year to date precipitation 41.14  
Snow  
Snow 0.00 in - - ()
Month to date snowfall  
Since 1 July snowfall  
Snow Depth -    
Sea Level Pressure  
Sea Level Pressure 30.28 in    
Wind  
Wind Speed 15 mph (North)    
Max Wind Speed 21 mph    
Max Gust Speed 28 mph    
Visibility 10 miles    
Events Rain    
T = Trace of Precipitation, MM = Missing Value Source: NWS Daily Summary

Daily Weather History Graph

Daily Weather History Graph

Search for Another Location

Airport or City:

Trip Planner

Search our weather history database for the weather conditions in past years. The results will help you decide how hot, cold, wet, or windy it might be!

Date:

Astronomy

Dec. 30, 2013 Rise Set
Actual Time 7:19 AM CST 5:39 PM CST
Civil Twilight 6:53 AM CST 6:05 PM CST
Nautical Twilight 6:23 AM CST 6:35 PM CST
Astronomical Twilight 5:54 AM CST 7:04 PM CST
Moon 5:14 AM CST (12/30) 4:10 PM CST (12/30)
Length of Visible Light 11h 12m
Length of Day
10h 20m
Waning Crescent, 4% of the Moon is Illuminated
Dec 30
Waning Crescent
Jan 1
New
Jan 7
First Quarter
Jan 15
Full
Jan 23
Last Quarter

Hourly Weather History & Observations

Time (CST) Temp. Windchill Dew Point Humidity Pressure Visibility Wind Dir Wind Speed Gust Speed Precip Events Conditions
12:15 AM 46.0 °F 38.5 °F 40.3 °F 80% 30.17 in 10.0 mi North 19.6 mph 24.2 mph N/A   Mostly Cloudy
12:35 AM 44.6 °F 37.2 °F 38.8 °F 80% 30.17 in 10.0 mi North 17.3 mph - N/A   Scattered Clouds
12:55 AM 43.7 °F 35.4 °F 38.1 °F 81% 30.17 in 10.0 mi North 19.6 mph 24.2 mph N/A   Scattered Clouds
1:15 AM 42.8 °F 35.4 °F 37.2 °F 81% 30.16 in 10.0 mi North 15.0 mph 27.6 mph N/A   Scattered Clouds
1:35 AM 42.1 °F 33.1 °F 36.5 °F 81% 30.16 in 10.0 mi North 20.7 mph 26.5 mph N/A   Scattered Clouds
1:55 AM 41.5 °F 32.9 °F 36.1 °F 81% 30.18 in 10.0 mi North 18.4 mph 21.9 mph N/A   Clear
2:15 AM 40.6 °F 31.4 °F 35.6 °F 82% 30.18 in 10.0 mi North 19.6 mph 25.3 mph N/A   Scattered Clouds
2:35 AM 39.7 °F 30.6 °F 34.9 °F 83% 30.19 in 10.0 mi North 18.4 mph - N/A   Scattered Clouds
2:55 AM 39.7 °F 31.5 °F 34.7 °F 82% 30.19 in 10.0 mi North 15.0 mph 25.3 mph N/A   Mostly Cloudy
3:15 AM 39.6 °F 30.3 °F 34.7 °F 83% 30.19 in 10.0 mi North 18.4 mph 24.2 mph N/A   Overcast
3:35 AM 39.4 °F 31.1 °F 34.3 °F 82% 30.20 in 10.0 mi North 15.0 mph 24.2 mph N/A   Overcast
3:55 AM 39.4 °F 30.1 °F 34.2 °F 82% 30.21 in 10.0 mi North 18.4 mph - N/A   Overcast
4:15 AM 39.2 °F 30.8 °F 34.0 °F 82% 30.21 in 10.0 mi North 15.0 mph - N/A   Overcast
4:35 AM 39.2 °F 30.8 °F 33.8 °F 81% 30.20 in 10.0 mi North 15.0 mph 23.0 mph N/A   Overcast
4:55 AM 38.5 °F 28.3 °F 33.1 °F 81% 30.20 in 10.0 mi North 20.7 mph 25.3 mph N/A   Mostly Cloudy
5:15 AM 38.5 °F 29.2 °F 32.9 °F 80% 30.20 in 10.0 mi North 17.3 mph 23.0 mph N/A   Scattered Clouds
5:35 AM 38.5 °F 29.6 °F 32.7 °F 80% 30.21 in 10.0 mi North 16.1 mph 26.5 mph N/A   Mostly Cloudy
5:55 AM 38.7 °F 30.1 °F 32.7 °F 79% 30.22 in 10.0 mi North 15.0 mph - N/A   Overcast
6:15 AM 38.8 °F 30.4 °F 32.7 °F 79% 30.23 in 10.0 mi North 15.0 mph 18.4 mph N/A   Overcast
6:35 AM 38.7 °F 30.1 °F 32.2 °F 78% 30.22 in 10.0 mi North 15.0 mph - N/A   Overcast
6:55 AM 38.7 °F 29.1 °F 32.4 °F 78% 30.22 in 10.0 mi North 18.4 mph - N/A   Overcast
7:15 AM 38.5 °F 29.6 °F 32.2 °F 78% 30.23 in 10.0 mi North 16.1 mph - N/A   Overcast
7:35 AM 38.3 °F 31.4 °F 32.0 °F 78% 30.24 in 10.0 mi North 10.4 mph 23.0 mph N/A   Mostly Cloudy
7:55 AM 38.5 °F 31.1 °F 32.0 °F 78% 30.25 in 10.0 mi North 11.5 mph 21.9 mph N/A   Mostly Cloudy
8:15 AM 38.8 °F 33.2 °F 32.2 °F 77% 30.26 in 10.0 mi North 8.1 mph 25.3 mph N/A   Overcast
8:35 AM 39.2 °F 30.2 °F 32.2 °F 76% 30.28 in 10.0 mi North 17.3 mph 23.0 mph N/A   Overcast
8:55 AM 39.6 °F 31.3 °F 32.4 °F 75% 30.29 in 10.0 mi North 15.0 mph - N/A   Overcast
9:15 AM 40.1 °F 32.4 °F 32.4 °F 74% 30.30 in 10.0 mi North 13.8 mph - N/A   Overcast
9:35 AM 40.1 °F 31.3 °F 32.2 °F 73% 30.30 in 10.0 mi North 17.3 mph - N/A   Overcast
9:55 AM 40.6 °F 33.0 °F 32.5 °F 73% 30.29 in 10.0 mi North 13.8 mph - N/A   Mostly Cloudy
10:15 AM 41.0 °F 32.5 °F 32.4 °F 71% 30.31 in 10.0 mi North 17.3 mph - N/A   Scattered Clouds
10:35 AM 41.4 °F 33.6 °F 32.7 °F 71% 30.30 in 10.0 mi North 15.0 mph - N/A   Clear
10:55 AM 41.5 °F 33.5 °F 32.5 °F 70% 30.32 in 10.0 mi North 16.1 mph - N/A   Scattered Clouds
11:15 AM 41.2 °F 33.4 °F 32.4 °F 71% 30.32 in 10.0 mi North 15.0 mph - N/A   Mostly Cloudy
11:35 AM 41.2 °F 33.0 °F 32.9 °F 72% 30.31 in 10.0 mi North 16.1 mph - N/A Rain Light Rain
11:55 AM 41.4 °F 33.6 °F 32.4 °F 70% 30.30 in 10.0 mi North 15.0 mph - N/A   Mostly Cloudy
12:15 PM 41.5 °F 33.8 °F 32.4 °F 70% 30.29 in 10.0 mi North 15.0 mph - N/A   Mostly Cloudy
12:35 PM 42.1 °F 33.9 °F 32.4 °F 68% 30.29 in 10.0 mi North 17.3 mph - N/A   Mostly Cloudy
12:55 PM 42.8 °F 35.4 °F 32.7 °F 68% 30.27 in 10.0 mi North 15.0 mph - N/A   Overcast
1:15 PM 43.0 °F 36.8 °F 32.9 °F 68% 30.28 in 10.0 mi North 11.5 mph - N/A   Overcast
1:35 PM 43.2 °F 36.2 °F 32.9 °F 67% 30.26 in 10.0 mi North 13.8 mph - N/A   Overcast
1:55 PM 43.5 °F 36.7 °F 32.9 °F 66% 30.26 in 10.0 mi North 13.8 mph - N/A   Overcast
2:15 PM 43.3 °F 36.1 °F 32.5 °F 66% 30.26 in 10.0 mi North 15.0 mph - N/A   Overcast
2:55 PM 43.3 °F 38.1 °F 32.0 °F 64% 30.26 in 10.0 mi North 9.2 mph 19.6 mph N/A   Overcast
3:15 PM 43.2 °F 36.2 °F 32.0 °F 65% 30.27 in 10.0 mi North 13.8 mph - N/A   Overcast
3:35 PM 43.2 °F 37.0 °F 32.0 °F 65% 30.28 in 10.0 mi North 11.5 mph - N/A   Overcast
3:55 PM 43.0 °F 36.8 °F 32.0 °F 65% 30.26 in 10.0 mi North 11.5 mph 18.4 mph N/A   Overcast
4:15 PM 43.2 °F 36.6 °F 32.0 °F 65% 30.26 in 10.0 mi North 12.7 mph - N/A   Overcast
4:35 PM 43.3 °F 38.6 °F 32.2 °F 65% 30.27 in 10.0 mi North 8.1 mph - N/A   Overcast
4:55 PM 43.2 °F 38.4 °F 32.0 °F 65% 30.29 in 10.0 mi NNW 8.1 mph - N/A   Overcast
5:15 PM 43.2 °F 37.9 °F 32.0 °F 65% 30.29 in 10.0 mi North 9.2 mph - N/A   Overcast
5:35 PM 43.0 °F 38.2 °F 32.0 °F 65% 30.29 in 10.0 mi North 8.1 mph - N/A   Mostly Cloudy
5:55 PM 43.0 °F 40.3 °F 32.5 °F 67% 30.28 in 10.0 mi North 4.6 mph - N/A   Mostly Cloudy
6:15 PM 42.8 °F 38.0 °F 32.5 °F 67% 30.30 in 10.0 mi NNW 8.1 mph - N/A   Mostly Cloudy
6:35 PM 42.4 °F 38.1 °F 32.5 °F 68% 30.29 in 10.0 mi North 6.9 mph - N/A   Mostly Cloudy
6:55 PM 42.3 °F 36.3 °F 32.4 °F 68% 30.33 in 10.0 mi NNW 10.4 mph - N/A   Mostly Cloudy
7:15 PM 42.1 °F 37.7 °F 32.0 °F 67% 30.32 in 10.0 mi North 6.9 mph - N/A   Scattered Clouds
7:35 PM 42.1 °F 37.1 °F 32.4 °F 68% 30.34 in 10.0 mi North 8.1 mph - N/A   Scattered Clouds
7:55 PM 42.3 °F 37.3 °F 31.8 °F 67% 30.34 in 10.0 mi NNE 8.1 mph - N/A   Overcast
8:15 PM 41.9 °F 36.3 °F 32.0 °F 68% 30.36 in 10.0 mi North 9.2 mph - N/A   Mostly Cloudy
8:35 PM 41.9 °F 36.9 °F 32.0 °F 68% 30.36 in 10.0 mi North 8.1 mph - N/A   Mostly Cloudy
8:55 PM 41.9 °F 37.5 °F 32.0 °F 68% 30.37 in 10.0 mi North 6.9 mph - N/A   Overcast
9:15 PM 41.9 °F 37.5 °F 32.0 °F 68% 30.37 in 10.0 mi NNE 6.9 mph - N/A   Scattered Clouds
9:35 PM 41.9 °F 36.9 °F 32.2 °F 68% 30.37 in 10.0 mi North 8.1 mph - N/A   Scattered Clouds
9:55 PM 41.5 °F 38.6 °F 32.4 °F 70% 30.39 in 10.0 mi North 4.6 mph - N/A   Scattered Clouds
10:15 PM 41.5 °F 37.8 °F 32.5 °F 70% 30.39 in 10.0 mi North 5.8 mph - N/A   Clear
10:35 PM 41.4 °F 38.4 °F 32.9 °F 72% 30.39 in 10.0 mi North 4.6 mph - N/A   Clear
10:55 PM 41.4 °F 36.8 °F 32.9 °F 72% 30.41 in 10.0 mi NNW 6.9 mph - N/A   Clear
11:15 PM 41.0 °F 37.1 °F 32.9 °F 73% 30.40 in 10.0 mi North 5.8 mph - N/A   Clear
11:35 PM 41.0 °F 36.4 °F 32.9 °F 73% 30.39 in 10.0 mi North 6.9 mph - N/A   Clear
11:55 PM 41.0 °F 35.2 °F 33.3 °F 74% 30.39 in 10.0 mi North 9.2 mph - N/A   Clear